Retour au catalogue

IRIDIUM 33 DEB

ActifPO
NORAD 33884·DEBRIS·🇺🇸 United States

Lancé Sep 14, 1997 depuis Baikonur Cosmodrome

Loading…

Prochains Passages (prochaines 24 heures)

TLE

FraisSource: Space-Track

Époque: Sep 14, 2026, 05:49 UTC

1 33884U 97051BD  26257.24258815  .00007514  00000-0  89057-3 0  9994
2 33884  86.3624 244.6080 0014720  71.0573 299.5994 14.84342164929260

Suivez IRIDIUM 33 DEB en temps réel avec AllMySat

Download on the App Store